Regional Weather Roundup
Issued by NWS Glasgow, MT

Home | Current Version | Previous Version | Text Only | Print | Product List | Glossary On
Versions: 1 2 3 4 5 6 7 8 9 10 11 12 13 14 15 16 17 18 19 20 21 22 23 24 25 26 27 28 29 30 31 32 33 34 35 36 37 38 39 40 41 42 43 44 45 46 47 48 49 50
000
ASUS45 KGGW 280815
RWRGGW
HOURLY REGIONAL WEATHER ROUNDUP FOR NORTHEAST MONTANA
NATIONAL WEATHER SERVICE GLASGOW MONTANA
200 AM MDT TUE JUL 28 2015

NOTE: "FAIR" INDICATES FEW OR NO CLOUDS BELOW 12,000 FEET WITH NO
SIGNIFICANT WEATHER AND/OR OBSTRUCTIONS TO VISISBILITY.

NORTHEAST MONTANA


CITY           SKY/WX    TMP DP  RH WIND       PRES   REMARKS
GLASGOW        LGT RAIN  57  54  89 W23G32    29.66S FOG
PLENTYWOOD       N/A     61  58  90 SW7G16      N/A
WOLF POINT     CLOUDY    61  55  81 W20G33    29.63F
JORDAN         NOT AVBL
WINNETT          N/A     51  47  86 SW18        N/A
SIDNEY         CLOUDY    63  55  77 SW15      29.65S
GLENDIVE       NOT AVBL
MALTA            N/A     56  55  97 W12G20      N/A
SCOBEY           N/A     59  54  83 SW12      29.58S

FORT PECK REPORTS


CITY           SKY/WX    TMP DP  RH WIND       PRES   REMARKS
FORT PECK        N/A     57  54  89 SW22G36     N/A
THE PINES        N/A     55  52  89 SW12G20     N/A

SOUTHEAST MONTANA


CITY           SKY/WX    TMP DP  RH WIND       PRES   REMARKS
BILLINGS       PTCLDY    54  41  61 W29G39    29.98F
MILES CITY     CLOUDY    56  51  84 W17G26    29.84S
BAKER          CLOUDY    56  53  90 W20G28    29.80S
LIVINGSTON     CLOUDY    52  38  58 SW24G35   30.10S

CENTRAL MONTANA


CITY           SKY/WX    TMP DP  RH WIND       PRES   REMARKS
HAVRE          HVY RAIN  55  53  93 W23G29    29.84F FOG
LEWISTOWN      RAIN      50  46  86 W12       29.98S
GREAT FALLS    LGT RAIN  51  47  86 W10       30.02F
CUT BANK       CLOUDY    51  44  77 W14       30.01F
HELENA         CLOUDY    54  40  59 W20G26    30.11R
BUTTE          MOCLDY    43  37  79 CALM      30.20S
BOZEMAN        CLOUDY    48  43  82 NE3       30.16S

WESTERN MONTANA


CITY           SKY/WX    TMP DP  RH WIND       PRES   REMARKS
MISSOULA       CLOUDY    50  48  93 SE3       30.19S
KALISPELL      NOT AVBL

NORTH DAKOTA


CITY           SKY/WX    TMP DP  RH WIND       PRES   REMARKS
WILLISTON      CLOUDY    64  60  87 SW22G29   29.59S
DICKINSON      PTCLDY    59  55  87 W24G32    29.68S
MINOT          MOCLDY    72  58  61 S12G21    29.53R
BISMARCK       CLOUDY    70  60  70 SW3       29.63R

SOUTHERN SASKATCHEWAN


CITY           SKY/WX    TMP DP  RH WIND       PRES   REMARKS
REGINA         CLOUDY    63  61  94 NE20G30   29.44F
ESTEVAN        CLOUDY    64  61  88 S16G24    29.48R
SWIFT CURRENT  RAIN      55 N/A N/A N22G31    29.64F




USA.gov is the U.S. government's official web portal to all federal, state and local government web resources and services.